Showing default

SPOT 4, 25260

Orbit data source: Space-Track

SPOT 4, 25260 is a payload satellite owned by CNES (FR) in SSO that was launched on Tue, 24 Mar 1998 UTC via an ARIANE 40 launch vehicle from the French Guiana (FRGUI). Payloads include a variety of satellites, spacecraft, and rockets equipped with specific instruments for various scientific and technological missions. These include communications satellites like Starlink; space stations such as the ISS; scientific satellites like the Hubble; Earth observation satellites from companies like Planet Labs, Umbra, and HawkEye 360; GPS; miniature CubeSats for education and research; and military/defense satellites.

Loading next visibility...
SPOT 4 details
Identifier
25260, 1998-017A
Orbit
SSO
Last TLE update6 hours ago
Origin
Flag of FRCNES (FR)
ManufacturerMMS/Toulouse
MissionNon-operational Civil Imaging
Bus & MotorSPOT, SPOT AOCS
Mass2,755 kg wet, 2,600 kg dry
Launch date (UTC)
1998-03-24 (27 years ago)
Launch vehicle
ARIANE 40
Launch site
French Guiana (FRGUI)
Object type
Payload
Rocket body
Debris
Shape & HBRBox + 1 Pan, 7.99 m
Radar Cross Section37.816 m², Large (>1 m²)

Expand to show TLE details & history

TLE from 6 hours ago
0 SPOT 4
1 25260U 98017A   24361.17219030  .00001149  00000-0  27499-3 0  9998
2 25260  98.2548  92.2307 0013869  87.1753 273.1031 14.55353244401271
Epoch: 2024-12-26T04:07Z
Definitive object data (Epoch: 2024-12-26T04:07:57.241Z)
Latitude-0.0001°
Longitude-64.91319°
Altitude710.676 km
Speed7.501 km/s
True Right ascension06h 08m 55s
True Declination0° 00' 00"
Sunlit
Object was in full shadow at TLE epoch
Visualization TLE readout
Latitude-69.05862°
Longitude93.18511°
Altitude743.565 km
Speed7.477 km/s
Apparent Right ascension20h 00m 57s
Apparent Declination-60° 09' 57"
Sunlit
Object is in daylight
Visualization observer readout
Local Sidereal Time09:34:55
Azimuth151.977° SSE
Elevation-65.036°
Doppler factor1
Orbital elements
Apogee altitude715.132 km
Perigee altitude695.484 km
Semi-major axis7,083.445 km
Eccentricity0.0013869
Inclination98.2548°
RAAN92.2307°
Arg. of periapsis87.1753°
True anomaly272.94439°
Mean anomaly273.1031°
Eccentric anomaly273.02375°
Mean motion3.64063 °/min
BSTAR0.00027499
Orbital period98.88 mins
Loading maneuver chart data...
Loading historical data...
Loading historical data...
Loading historical data...
Loading historical data...
Loading historical data...
Loading historical data...
Loading historical data...

SPOT 4 Visibility forecast

Observer location: undefined°, undefined

Span
Click to sort rows by Start time (UTC) header in descending order
Start Az.
Max El. time (UTC)
Max El. Az.
Max El.
End time (UTC)
End Az.
4 mins2024-12-26 17:56:46.259Z64.313° ENE2024-12-26 17:58:46.259Z91.041° ESE13.972°2024-12-26 18:00:46.259Z117.935° SE
7 mins2024-12-26 19:33:46.259Z358.776° N2024-12-26 19:36:46.259Z298.101° NW39.324°2024-12-26 19:40:46.259Z212.475° SW
4 mins2024-12-27 05:03:46.259Z87.816° E2024-12-27 05:05:46.259Z58.501° ENE15.598°2024-12-27 05:07:46.259Z31.475° NE
7 mins2024-12-27 06:39:46.259Z189.234° SSW2024-12-27 06:42:46.259Z256.377° W38.654°2024-12-27 06:46:46.259Z334.732° NNW
|